Retour au catalogue

STARLINK-37469

ActifCommunicationsVLEO
NORAD 69168·PAYLOAD·🇺🇸 United States

Lancé May 21, 2026 depuis Cape Canaveral Space Force Station

Loading…

Prochains Passages (prochaines 24 heures)

TLE

FraisSource: CelesTrak SupGP

Époque: Sep 14, 2026, 23:07 UTC

1 69168C 26111W   26257.96368056  .00047617  00000+0  14069-2 0  2579
2 69168  53.1571  91.5142 0001348  81.0586 162.5821 15.34364973    11

Suivez STARLINK-37469 en temps réel avec AllMySat

Download on the App Store